FW4680 Weather Reports


time (UTC)temp
F
wind
direction
speed
knots
gust
knots
rain 1hr
in
rain 24hr
in
rain mn
in
humidity
%
barometer
mb
20260906033037 72 204 0.0 0.9 0.00 0.03 0.03 98 1011.9
20260906031536 72 246 0.9 3.5 0.00 0.03 0.03 98 1012.0
20260906030134 72 216 0.0 0.9 0.00 0.03 0.03 97 1011.8
20260906024536 73 198 0.0 1.7 0.00 0.03 0.03 98 1011.8
20260906023042 73 119 0.0 0.9 0.00 0.03 0.03 97 1011.7
20260906021534 73 133 0.0 0.9 0.00 0.03 0.03 96 1011.5
20260906020132 74 276 0.0 0.9 0.00 0.03 0.03 96 1011.4
20260906014544 74 122 0.0 0.9 0.00 0.03 0.03 96 1011.4
20260906013034 74 298 0.0 2.6 0.00 0.03 0.03 95 1011.2
20260906011535 74 239 0.0 1.7 0.00 0.03 0.03 95 1011.0
20260906010134 75 211 0.0 0.9 0.00 0.03 0.03 95 1010.9
20260906004531 75 302 0.0 1.7 0.00 0.03 0.03 94 1010.8
20260906003031 76 244 0.0 1.7 0.00 0.03 0.03 92 1010.6
20260906001531 76 278 0.0 0.9 0.00 0.03 0.03 91 1010.4
20260906000131 78 278 0.0 0.9 0.00 0.03 0.03 89 1010.2
20260905234530 79 295 0.0 0.9 0.00 0.03 0.03 86 1010.1
20260905233030 80 89 0.0 4.3 0.00 0.03 0.03 84 1010.2
20260905231529 81 246 0.0 0.9 0.00 0.03 0.03 83 1009.9
20260905230128 82 229 0.0 0.9 0.00 0.03 0.03 78 1009.7
20260905224535 84 285 0.0 2.6 0.00 0.03 0.03 75 1009.6
20260905223033 86 274 0.0 1.7 0.00 0.03 0.03 71 1009.7
20260905221527 87 188 0.0 1.7 0.00 0.03 0.03 71 1009.8
20260905220127 86 215 0.0 1.7 0.00 0.03 0.03 70 1009.8
20260905214525 86 199 0.9 2.6 0.00 0.03 0.03 70 1009.9
20260905213025 85 281 0.0 2.6 0.00 0.03 0.03 74 1009.9
20260905211525 83 211 0.0 4.3 0.00 0.03 0.03 76 1010.3
20260905210123 81 248 1.7 3.5 0.00 0.03 0.03 79 1010.3
20260905204523 80 239 0.9 3.5 0.00 0.03 0.03 79 1010.5
20260905203023 79 203 0.9 3.5 0.00 0.03 0.03 80 1010.9
20260905201522 79 238 0.0 2.6 0.00 0.03 0.03 80 1010.9
20260905200122 78 285 0.9 4.3 0.00 0.03 0.03 84 1010.9
20260905194524 77 212 0.9 3.5 0.00 0.03 0.03 83 1011.0
20260905193024 76 273 0.9 2.6 0.00 0.03 0.03 84 1011.3
20260905191521 76 288 0.0 1.7 0.00 0.03 0.03 86 1011.1
20260905190121 76 231 2.6 7.8 0.00 0.03 0.03 83 1010.9
20260905184520 77 202 0.9 3.5 0.03 0.03 0.03 86 1011.0
20260905183019 77 295 0.9 6.1 0.03 0.03 0.03 87 1010.9
20260905181524 79 298 0.0 6.1 0.03 0.03 0.03 82 1010.3
20260905180118 83 256 0.9 3.5 0.03 0.03 0.03 82 1011.3
20260905174516 89 311 1.7 5.2 0.01 0.01 0.01 65 1011.8
20260905173015 94 297 2.6 6.1 0.00 0.00 0.00 59 1011.7
20260905171514 95 239 1.7 6.1 0.00 0.00 0.00 59 1011.7
20260905170112 95 301 0.9 7.8 0.00 0.00 0.00 58 1011.8
20260905164510 92 256 2.6 5.2 0.00 0.00 0.00 60 1011.7
20260905163011 93 288 0.9 5.2 0.00 0.00 0.00 60 1011.9
20260905161506 93 280 0.9 3.5 0.00 0.00 0.00 61 1012.1
20260905160123 91 290 1.7 7.0 0.00 0.00 0.00 65 1012.5
20260905154503 89 249 3.5 10.4 0.00 0.00 0.00 67 1012.6
20260905153002 89 323 2.6 7.8 0.00 0.00 0.00 68 1012.3
20260905151502 89 289 0.9 5.2 0.00 0.00 0.00 70 1012.2
20260905150100 89 124 0.9 4.3 0.00 0.00 0.00 73 1012.2
20260905144601 88 264 1.7 4.3 0.00 0.00 0.00 75 1012.3
20260905143057 86 232 0.9 5.2 0.00 0.00 0.00 76 1012.5
20260905141557 85 251 1.7 3.5 0.00 0.00 0.00 77 1012.5
20260905140104 84 235 1.7 4.3 0.00 0.00 0.00 78 1012.5
20260905134549 84 237 0.9 3.5 0.00 0.00 0.00 79 1012.7
20260905133046 83 304 0.9 4.3 0.00 0.00 0.00 80 1012.6
20260905131557 81 157 0.0 2.6 0.00 0.00 0.00 82 1012.8
20260905130046 79 240 0.0 2.6 0.00 0.00 0.00 86 1012.9
20260905124539 78 276 0.0 1.7 0.00 0.00 0.00 87 1013.0
20260905123036 76 295 0.0 5.2 0.00 0.00 0.00 90 1012.7
20260905121538 75 283 1.7 6.1 0.00 0.00 0.00 91 1012.7
20260905120040 74 279 0.9 2.6 0.00 0.00 0.00 92 1012.7
20260905114533 73 287 0.0 1.7 0.00 0.00 0.00 95 1012.7
20260905113032 72 234 0.0 0.9 0.00 0.00 0.00 97 1012.5
20260905111551 71 269 0.0 0.9 0.00 0.00 0.00 97 1012.2
20260905110030 71 258 0.0 0.9 0.00 0.00 0.00 96 1011.8
20260905104531 72 309 0.0 1.7 0.00 0.00 0.00 95 1011.8
20260905103031 72 241 0.0 1.7 0.00 0.00 0.00 96 1011.8
20260905101530 72 270 0.0 3.5 0.00 0.00 0.00 96 1011.6
20260905100031 72 271 0.0 0.9 0.00 0.00 0.00 97 1011.6
20260905094529 72 254 0.0 0.9 0.00 0.00 0.00 97 1011.7
20260905093028 72 225 0.0 0.9 0.00 0.00 0.00 96 1011.5
20260905091527 72 252 0.9 2.6 0.00 0.00 0.00 97 1011.5
20260905090025 72 261 0.0 1.7 0.00 0.00 0.00 97 1011.6
20260905084524 72 232 0.0 0.9 0.00 0.00 0.00 98 1011.7
20260905083021 72 187 0.0 0.9 0.00 0.00 0.00 97 1012.0
20260905081518 72 243 0.0 0.9 0.00 0.00 0.00 97 1012.1
20260905080016 72 277 0.0 1.7 0.00 0.00 0.00 98 1012.2
20260905074516 73 277 0.0 0.9 0.00 0.00 0.00 98 1012.4
20260905073019 73 234 0.0 0.9 0.00 0.00 0.00 98 1012.5
20260905071528 73 206 0.0 0.0 0.00 0.00 0.00 98 1012.5
20260905070012 73 205 0.0 0.9 0.00 0.00 0.00 98 1012.7
20260905064511 73 235 0.0 0.0 0.00 0.00 0.00 98 1012.9
20260905063009 73 235 0.0 0.0 0.00 0.00 0.00 98 1012.9
20260905061509 74 235 0.0 0.0 0.00 0.00 0.00 97 1013.2
20260905060005 74 234 0.0 0.9 0.00 0.00 0.00 97 1013.4
20260905054512 74 234 0.0 0.9 0.00 0.00 0.00 97 1013.5
20260905053003 74 274 0.0 0.9 0.00 0.00 0.00 96 1013.5
20260905051601 75 274 0.0 0.9 0.00 0.00 0.00 95 1013.6
20260905050059 75 272 0.0 0.9 0.00 0.00 0.00 94 1013.4
20260905044557 76 283 0.0 0.9 0.00 0.00 0.00 94 1013.4